CES746 NZAA-ZSPD

Flight info

Callsign CES746
Flight time N/A
Altitude 32000
Route DUGAN A597 GOPRA/N0496F340 A597 OKOLE/N0490F360 A597 UNZ G339 SABGU/N0482F380 G339 AGIKA Z41 POTET Y592 ONIKU A593 LAMEN/K0893F380 A593 AKARA/K0895S1160 A593 DUMET DUM82A
Aircraft B77W/H-SDE1E2E3FGHIJ2J3J4J5M1RWXY/LB1D1

Departure

Time N/A
Airport Auckland International Airport (NZAA)

Arrival

Time 2026-05-05 07:45
Airport Shanghai Pudong International Airport (ZSPD)
Time Latitude Longitude Altitude Speed Heading
2026-05-05 05:41 26.35227 134.33615 37996 ft 453 kts 318°
2026-05-05 05:41 26.37826 134.31610 37996 ft 453 kts 318°
2026-05-05 05:42 26.43014 134.27606 37995 ft 453 kts 319°
2026-05-05 05:42 26.48212 134.23592 37995 ft 452 kts 319°
2026-05-05 05:43 26.53367 134.19603 37995 ft 452 kts 318°
2026-05-05 05:43 26.58554 134.15587 37994 ft 453 kts 318°
2026-05-05 05:44 26.63742 134.11565 37994 ft 453 kts 318°
2026-05-05 05:44 26.68945 134.07527 37993 ft 452 kts 319°
2026-05-05 05:45 26.74116 134.03510 37994 ft 454 kts 319°
2026-05-05 05:45 26.79314 133.99466 37993 ft 452 kts 318°
2026-05-05 05:46 26.84490 133.95432 37993 ft 453 kts 319°
2026-05-05 05:46 26.89669 133.91394 37992 ft 452 kts 318°
2026-05-05 05:47 26.94867 133.87334 37993 ft 453 kts 318°
2026-05-05 05:47 27.00042 133.83289 37992 ft 452 kts 319°
2026-05-05 05:48 27.05199 133.79251 37993 ft 454 kts 318°
2026-05-05 05:48 27.10370 133.75200 37991 ft 453 kts 318°
2026-05-05 05:49 27.15547 133.71140 37986 ft 453 kts 318°
2026-05-05 05:49 27.20700 133.67093 37986 ft 452 kts 318°
2026-05-05 05:50 27.25857 133.63037 37985 ft 452 kts 318°
2026-05-05 05:50 27.31039 133.58958 37985 ft 452 kts 318°
2026-05-05 05:51 27.36189 133.54900 37984 ft 452 kts 318°
2026-05-05 05:51 27.41351 133.50827 37984 ft 452 kts 318°
2026-05-05 05:52 27.46503 133.46758 37985 ft 453 kts 318°
2026-05-05 05:52 27.51705 133.42644 37983 ft 452 kts 318°
2026-05-05 05:53 27.56866 133.38557 37984 ft 452 kts 318°
2026-05-05 05:53 27.62021 133.34471 37987 ft 453 kts 318°
2026-05-05 05:54 27.67163 133.30389 37997 ft 452 kts 318°
2026-05-05 05:54 27.72321 133.26292 37996 ft 453 kts 318°
2026-05-05 05:55 27.77469 133.22197 37996 ft 452 kts 318°
2026-05-05 05:55 27.82632 133.18085 37995 ft 452 kts 318°
2026-05-05 05:56 27.87772 133.13986 37996 ft 453 kts 318°
2026-05-05 05:56 27.92962 133.09853 37995 ft 453 kts 318°
2026-05-05 05:57 27.98103 133.05756 37994 ft 453 kts 318°
2026-05-05 05:57 28.03287 133.01619 37995 ft 453 kts 318°
2026-05-05 05:58 28.08408 132.97527 37994 ft 454 kts 318°
2026-05-05 05:58 28.13574 132.93396 37989 ft 452 kts 318°
2026-05-05 05:59 28.18734 132.89262 37988 ft 452 kts 318°
2026-05-05 05:59 28.23868 132.85146 37988 ft 453 kts 318°
2026-05-05 06:00 28.29036 132.80997 37987 ft 452 kts 318°
2026-05-05 06:00 28.34180 132.76862 37988 ft 454 kts 318°
2026-05-05 06:01 28.39348 132.72700 37988 ft 453 kts 318°
2026-05-05 06:01 28.44486 132.68555 37987 ft 452 kts 318°
2026-05-05 06:02 28.49640 132.64391 37987 ft 454 kts 318°
2026-05-05 06:02 28.54759 132.60251 37986 ft 453 kts 318°
2026-05-05 06:03 28.59915 132.56076 37986 ft 452 kts 318°
2026-05-05 06:03 28.65061 132.51903 37987 ft 453 kts 318°
2026-05-05 06:04 28.70190 132.47739 37986 ft 454 kts 318°
2026-05-05 06:04 28.75317 132.43571 37986 ft 453 kts 318°
2026-05-05 06:05 28.80452 132.39394 37985 ft 452 kts 318°
2026-05-05 06:05 28.85588 132.35207 37986 ft 454 kts 318°
2026-05-05 06:06 28.90696 132.31041 37999 ft 452 kts 317°
2026-05-05 06:06 28.95845 132.26834 37999 ft 453 kts 317°
2026-05-05 06:07 29.00969 132.22643 37999 ft 453 kts 317°
2026-05-05 06:07 29.06077 132.18460 37998 ft 453 kts 317°
2026-05-05 06:08 29.11191 132.14267 37994 ft 453 kts 317°
2026-05-05 06:08 29.16291 132.10080 37992 ft 453 kts 317°
2026-05-05 06:09 29.21384 132.05894 37991 ft 452 kts 317°
2026-05-05 06:09 29.26501 132.01683 37991 ft 452 kts 317°
2026-05-05 06:10 29.31603 131.97479 37990 ft 452 kts 317°
2026-05-05 06:10 29.36712 131.93263 37991 ft 453 kts 317°
2026-05-05 06:11 29.41835 131.89029 37991 ft 453 kts 317°
2026-05-05 06:11 29.46925 131.84814 37990 ft 453 kts 317°
2026-05-05 06:12 29.52046 131.80568 37989 ft 452 kts 317°
2026-05-05 06:12 29.57157 131.76326 37989 ft 452 kts 317°
2026-05-05 06:13 29.62363 131.72212 37991 ft 456 kts 321°
2026-05-05 06:13 29.67688 131.68321 37988 ft 455 kts 321°
2026-05-05 06:14 29.73022 131.64401 37988 ft 455 kts 320°
2026-05-05 06:14 29.78376 131.60446 37988 ft 456 kts 321°
2026-05-05 06:15 29.83691 131.56509 37988 ft 456 kts 320°
2026-05-05 06:15 29.89037 131.52541 37988 ft 455 kts 320°
2026-05-05 06:16 29.94363 131.48579 37987 ft 456 kts 321°
2026-05-05 06:16 29.99417 131.44310 37983 ft 445 kts 310°
2026-05-05 06:17 30.03198 131.38823 37988 ft 434 kts 297°
2026-05-05 06:17 30.06429 131.32959 37998 ft 435 kts 297°
2026-05-05 06:18 30.09673 131.27029 37998 ft 434 kts 296°
2026-05-05 06:18 30.12880 131.21147 37992 ft 436 kts 296°
2026-05-05 06:19 30.16101 131.15224 37991 ft 434 kts 296°
2026-05-05 06:19 30.19314 131.09303 37992 ft 435 kts 296°
2026-05-05 06:20 30.22525 131.03378 37989 ft 435 kts 296°
2026-05-05 06:20 30.25736 130.97441 37990 ft 435 kts 296°
2026-05-05 06:21 30.28934 130.91522 37989 ft 433 kts 296°
2026-05-05 06:21 30.32118 130.85619 37988 ft 433 kts 296°
2026-05-05 06:22 30.35312 130.79686 37988 ft 434 kts 296°
2026-05-05 06:22 30.38482 130.73789 37988 ft 434 kts 296°
2026-05-05 06:23 30.41685 130.67824 37989 ft 434 kts 296°
2026-05-05 06:23 30.44856 130.61908 37990 ft 435 kts 296°
2026-05-05 06:24 30.48051 130.55940 37989 ft 434 kts 296°
2026-05-05 06:24 30.51231 130.49991 37985 ft 434 kts 296°
2026-05-05 06:25 30.54415 130.44023 37985 ft 436 kts 296°
2026-05-05 06:25 30.57580 130.38083 37984 ft 434 kts 296°
2026-05-05 06:26 30.60771 130.32085 37996 ft 434 kts 296°
2026-05-05 06:26 30.63928 130.26141 37997 ft 434 kts 296°
2026-05-05 06:27 30.68677 130.17186 37996 ft 433 kts 296°
2026-05-05 06:28 30.71852 130.11185 37994 ft 434 kts 296°
2026-05-05 06:28 30.75008 130.05212 37994 ft 434 kts 296°
2026-05-05 06:29 30.78179 129.99203 37993 ft 434 kts 296°
2026-05-05 06:29 30.81317 129.93248 37993 ft 435 kts 296°
2026-05-05 06:30 30.84475 129.87242 37992 ft 434 kts 296°
2026-05-05 06:30 30.87627 129.81241 37991 ft 434 kts 296°
2026-05-05 06:31 30.90746 129.75293 37991 ft 434 kts 296°
2026-05-05 06:31 30.93909 129.69252 37990 ft 434 kts 296°
2026-05-05 06:32 30.97032 129.63277 37989 ft 434 kts 296°
2026-05-05 06:32 31.00170 129.57268 37989 ft 433 kts 296°
2026-05-05 06:33 31.03307 129.51248 37988 ft 433 kts 296°
2026-05-05 06:33 31.06446 129.45213 37988 ft 435 kts 296°
2026-05-05 06:34 31.09580 129.39182 37987 ft 434 kts 296°
2026-05-05 06:34 31.12705 129.33159 37991 ft 433 kts 295°
2026-05-05 06:35 31.15819 129.27147 37993 ft 433 kts 295°
2026-05-05 06:35 31.18925 129.21140 37993 ft 433 kts 295°
2026-05-05 06:36 31.22038 129.15111 37992 ft 433 kts 296°
2026-05-05 06:36 31.25137 129.09099 37992 ft 434 kts 296°
2026-05-05 06:37 31.28246 129.03059 37992 ft 434 kts 296°
2026-05-05 06:37 31.31371 128.96977 37990 ft 433 kts 295°
2026-05-05 06:38 31.34472 128.90935 37990 ft 434 kts 296°
2026-05-05 06:38 31.37566 128.84894 37989 ft 433 kts 295°
2026-05-05 06:39 31.40675 128.78816 37989 ft 434 kts 295°
2026-05-05 06:39 31.43766 128.72763 37987 ft 434 kts 295°
2026-05-05 06:40 31.46853 128.66710 37987 ft 433 kts 295°
2026-05-05 06:40 31.49950 128.60626 37986 ft 433 kts 295°
2026-05-05 06:41 31.53023 128.54579 37987 ft 434 kts 295°
2026-05-05 06:41 31.56102 128.48512 37986 ft 434 kts 295°
2026-05-05 06:42 31.59198 128.42400 37985 ft 434 kts 295°
2026-05-05 06:42 31.62265 128.36337 37984 ft 434 kts 295°
2026-05-05 06:43 31.65367 128.30194 37996 ft 433 kts 295°
2026-05-05 06:43 31.68432 128.24115 37996 ft 434 kts 295°
2026-05-05 06:44 31.71500 128.18022 37996 ft 434 kts 295°
2026-05-05 06:44 31.74554 128.11945 37995 ft 433 kts 295°
2026-05-05 06:45 31.77612 128.05852 37994 ft 432 kts 295°
2026-05-05 06:45 31.80667 127.99753 37993 ft 434 kts 295°
2026-05-05 06:46 31.83717 127.93655 37993 ft 434 kts 295°
2026-05-05 06:46 31.86783 127.87515 37992 ft 432 kts 295°
2026-05-05 06:47 31.89830 127.81403 37992 ft 434 kts 295°
2026-05-05 06:47 31.92868 127.75300 37991 ft 434 kts 295°
2026-05-05 06:48 31.95913 127.69173 37990 ft 433 kts 295°
2026-05-05 06:48 31.98936 127.63079 37989 ft 432 kts 295°
2026-05-05 06:49 32.01972 127.56949 37990 ft 434 kts 295°
2026-05-05 06:49 32.05001 127.50825 37988 ft 434 kts 295°
2026-05-05 06:50 32.08049 127.44651 37988 ft 433 kts 295°
2026-05-05 06:50 32.11063 127.38535 37982 ft 432 kts 295°
2026-05-05 06:51 32.14087 127.32388 37994 ft 434 kts 294°
2026-05-05 06:51 32.17096 127.26261 37994 ft 433 kts 295°
2026-05-05 06:52 32.20136 127.20059 37993 ft 433 kts 295°
2026-05-05 06:52 32.23146 127.13909 37992 ft 433 kts 294°
2026-05-05 06:53 32.25573 127.07518 37990 ft 425 kts 281°
2026-05-05 06:53 32.26410 127.00718 37990 ft 418 kts 267°
2026-05-05 06:54 32.25661 126.93945 37993 ft 416 kts 256°
2026-05-05 06:54 32.24271 126.87317 37988 ft 415 kts 255°
2026-05-05 06:55 32.22853 126.80733 37988 ft 416 kts 255°
2026-05-05 06:55 32.21404 126.74109 37987 ft 416 kts 255°
2026-05-05 06:56 32.19947 126.67508 37986 ft 415 kts 255°
2026-05-05 06:56 32.18503 126.60889 37985 ft 416 kts 255°
2026-05-05 06:57 32.17094 126.54336 37983 ft 415 kts 255°
2026-05-05 06:57 32.15660 126.47704 37983 ft 416 kts 255°
2026-05-05 06:58 32.14221 126.41065 37982 ft 415 kts 255°
2026-05-05 06:58 32.12788 126.34483 37982 ft 415 kts 255°
2026-05-05 06:59 32.11355 126.27917 37993 ft 415 kts 255°
2026-05-05 06:59 32.09912 126.21323 37992 ft 415 kts 255°
2026-05-05 07:00 32.08466 126.14733 37992 ft 415 kts 255°
2026-05-05 07:00 32.07021 126.08170 37991 ft 416 kts 255°
2026-05-05 07:01 32.05586 126.01572 37990 ft 415 kts 255°
2026-05-05 07:01 32.04169 125.94954 37989 ft 415 kts 255°
2026-05-05 07:02 32.02757 125.88380 37988 ft 416 kts 255°
2026-05-05 07:02 32.01333 125.81779 37987 ft 415 kts 255°
2026-05-05 07:03 31.99904 125.75214 37986 ft 415 kts 255°
2026-05-05 07:03 31.98432 125.68582 37985 ft 416 kts 255°
2026-05-05 07:04 31.95481 125.55326 37983 ft 416 kts 255°
2026-05-05 07:05 31.94012 125.48753 37982 ft 416 kts 255°
2026-05-05 07:05 31.92539 125.42179 37981 ft 415 kts 255°
2026-05-05 07:06 31.91061 125.35596 37981 ft 416 kts 255°
2026-05-05 07:06 31.89587 125.29050 37997 ft 415 kts 255°
2026-05-05 07:07 31.88104 125.22483 37997 ft 416 kts 255°
2026-05-05 07:07 31.86620 125.15922 37997 ft 415 kts 255°
2026-05-05 07:08 31.85123 125.09326 37995 ft 415 kts 254°
2026-05-05 07:08 31.83638 125.02801 37994 ft 416 kts 255°
2026-05-05 07:09 31.82169 124.96216 37993 ft 415 kts 255°
2026-05-05 07:09 31.80751 124.89627 37992 ft 415 kts 255°
2026-05-05 07:10 31.79326 124.83034 37992 ft 416 kts 255°
2026-05-05 07:10 31.77896 124.76449 37990 ft 415 kts 255°
2026-05-05 07:11 31.76468 124.69892 37990 ft 416 kts 255°
2026-05-05 07:11 31.75028 124.63299 37988 ft 416 kts 255°
2026-05-05 07:12 31.73586 124.56714 37988 ft 415 kts 255°
2026-05-05 07:12 31.72146 124.50161 37986 ft 416 kts 255°
2026-05-05 07:13 31.70698 124.43589 37986 ft 415 kts 255°
2026-05-05 07:13 31.69248 124.37021 37984 ft 415 kts 255°
2026-05-05 07:14 31.67800 124.30483 37996 ft 416 kts 255°
2026-05-05 07:14 31.66346 124.23933 37996 ft 416 kts 255°
2026-05-05 07:15 31.64889 124.17387 37995 ft 414 kts 255°
2026-05-05 07:15 31.63422 124.10816 37994 ft 416 kts 255°
2026-05-05 07:16 31.61961 124.04286 37911 ft 411 kts 255°
2026-05-05 07:16 31.61236 124.01051 37347 ft 410 kts 255°
2026-05-05 07:16 31.60519 123.97826 36625 ft 412 kts 255°
2026-05-05 07:16 31.59813 123.94587 35943 ft 412 kts 255°
2026-05-05 07:17 31.59110 123.91357 35260 ft 411 kts 256°
2026-05-05 07:17 31.58405 123.88130 34569 ft 411 kts 255°
2026-05-05 07:17 31.57690 123.84860 33841 ft 411 kts 256°
2026-05-05 07:17 31.56986 123.81644 33134 ft 411 kts 256°
2026-05-05 07:18 31.56276 123.78410 32402 ft 410 kts 256°
2026-05-05 07:18 31.55566 123.75178 31653 ft 411 kts 256°
2026-05-05 07:18 31.54848 123.71917 30904 ft 424 kts 256°
2026-05-05 07:18 31.54104 123.68542 30330 ft 428 kts 256°
2026-05-05 07:19 31.53366 123.65198 29908 ft 424 kts 256°
2026-05-05 07:19 31.52634 123.61884 29449 ft 421 kts 256°
2026-05-05 07:19 31.51903 123.58579 28964 ft 419 kts 256°
2026-05-05 07:19 31.51175 123.55296 28470 ft 417 kts 256°
2026-05-05 07:20 31.50449 123.52021 27976 ft 414 kts 256°
2026-05-05 07:20 31.49733 123.48771 27485 ft 411 kts 257°
2026-05-05 07:20 31.49109 123.45495 26988 ft 409 kts 258°
2026-05-05 07:20 31.48507 123.42263 26490 ft 407 kts 258°
2026-05-05 07:21 31.47905 123.39045 25987 ft 404 kts 258°
2026-05-05 07:21 31.47305 123.35853 25488 ft 401 kts 258°
2026-05-05 07:21 31.46706 123.32680 25002 ft 399 kts 258°
2026-05-05 07:21 31.46113 123.29551 24500 ft 397 kts 258°
2026-05-05 07:22 31.45512 123.26389 23987 ft 394 kts 258°
2026-05-05 07:22 31.44918 123.23270 23486 ft 391 kts 258°
2026-05-05 07:22 31.44326 123.20171 22979 ft 390 kts 258°
2026-05-05 07:22 31.43736 123.17084 22472 ft 388 kts 258°
2026-05-05 07:23 31.43151 123.14036 21973 ft 386 kts 258°
2026-05-05 07:23 31.42570 123.11006 21465 ft 384 kts 258°
2026-05-05 07:23 31.41986 123.07968 20953 ft 381 kts 258°
2026-05-05 07:23 31.41406 123.04955 20450 ft 379 kts 258°
2026-05-05 07:24 31.40825 123.01942 19936 ft 377 kts 258°
2026-05-05 07:24 31.40250 122.98963 19426 ft 375 kts 258°
2026-05-05 07:24 31.39677 122.96001 18919 ft 373 kts 258°
2026-05-05 07:24 31.39107 122.93056 18408 ft 371 kts 257°
2026-05-05 07:25 31.38542 122.90139 17898 ft 369 kts 257°
2026-05-05 07:25 31.37974 122.87215 17388 ft 366 kts 258°
2026-05-05 07:25 31.37414 122.84335 16881 ft 363 kts 258°
2026-05-05 07:25 31.36858 122.81480 16373 ft 361 kts 258°
2026-05-05 07:26 31.36376 122.78642 15868 ft 358 kts 263°
2026-05-05 07:26 31.36298 122.75738 15400 ft 354 kts 274°
2026-05-05 07:26 31.36544 122.72881 15107 ft 353 kts 276°
2026-05-05 07:26 31.36822 122.70012 14804 ft 352 kts 276°
2026-05-05 07:27 31.37099 122.67175 14482 ft 351 kts 276°
2026-05-05 07:27 31.37374 122.64361 14156 ft 349 kts 276°
2026-05-05 07:27 31.37643 122.61595 13834 ft 343 kts 276°
2026-05-05 07:27 31.37911 122.58847 13514 ft 335 kts 276°
2026-05-05 07:28 31.38171 122.56169 13205 ft 327 kts 276°
2026-05-05 07:28 31.38423 122.53564 12905 ft 319 kts 276°
2026-05-05 07:28 31.38669 122.51018 12609 ft 312 kts 276°
2026-05-05 07:28 31.38909 122.48534 12321 ft 305 kts 276°
2026-05-05 07:29 31.39143 122.46106 12040 ft 298 kts 276°
2026-05-05 07:29 31.39373 122.43718 11763 ft 292 kts 276°
2026-05-05 07:29 31.39595 122.41396 11494 ft 286 kts 276°
2026-05-05 07:29 31.39815 122.39105 11230 ft 280 kts 276°
2026-05-05 07:30 31.40029 122.36860 10968 ft 275 kts 276°
2026-05-05 07:30 31.40445 122.32494 10462 ft 264 kts 275°
2026-05-05 07:30 31.40647 122.30373 10164 ft 262 kts 276°
2026-05-05 07:31 31.40846 122.28272 9895 ft 258 kts 275°
2026-05-05 07:31 31.41041 122.26218 9636 ft 255 kts 276°
2026-05-05 07:31 31.41234 122.24175 9445 ft 246 kts 276°
2026-05-05 07:31 31.41416 122.22247 9236 ft 236 kts 275°
2026-05-05 07:32 31.41595 122.20351 9045 ft 229 kts 275°
2026-05-05 07:32 31.41766 122.18525 8889 ft 223 kts 275°
2026-05-05 07:32 31.41937 122.16701 8494 ft 228 kts 276°
2026-05-05 07:32 31.42112 122.14841 8115 ft 231 kts 276°
2026-05-05 07:33 31.42286 122.12981 7829 ft 230 kts 276°
2026-05-05 07:33 31.42459 122.11130 7508 ft 231 kts 276°
2026-05-05 07:33 31.42634 122.09259 7224 ft 230 kts 276°
2026-05-05 07:33 31.42807 122.07400 6940 ft 230 kts 276°
2026-05-05 07:34 31.42981 122.05529 6613 ft 231 kts 276°
2026-05-05 07:34 31.43155 122.03661 6335 ft 231 kts 276°
2026-05-05 07:34 31.43327 122.01803 6036 ft 231 kts 276°
2026-05-05 07:34 31.43499 121.99943 5762 ft 231 kts 276°
2026-05-05 07:35 31.43671 121.98083 5505 ft 230 kts 276°
2026-05-05 07:35 31.43844 121.96210 5222 ft 229 kts 276°
2026-05-05 07:35 31.44015 121.94356 4942 ft 230 kts 276°
2026-05-05 07:35 31.44186 121.92498 4670 ft 229 kts 276°
2026-05-05 07:36 31.44354 121.90667 4396 ft 229 kts 276°
2026-05-05 07:36 31.44524 121.88811 4131 ft 229 kts 276°
2026-05-05 07:36 31.44694 121.86953 3840 ft 230 kts 276°
2026-05-05 07:36 31.44864 121.85098 3596 ft 228 kts 276°
2026-05-05 07:37 31.44894 121.83293 3527 ft 218 kts 263°
2026-05-05 07:37 31.44619 121.81548 3275 ft 218 kts 259°
2026-05-05 07:37 31.44287 121.79792 3003 ft 219 kts 258°
2026-05-05 07:37 31.43958 121.78055 2745 ft 219 kts 258°
2026-05-05 07:38 31.43631 121.76324 2506 ft 218 kts 258°
2026-05-05 07:38 31.43278 121.74617 2261 ft 218 kts 248°
2026-05-05 07:38 31.42405 121.73257 2201 ft 204 kts 215°
2026-05-05 07:38 31.41127 121.72652 2032 ft 198 kts 186°
2026-05-05 07:39 31.39764 121.72778 1902 ft 192 kts 169°
2026-05-05 07:39 31.38448 121.73164 1889 ft 196 kts 162°
2026-05-05 07:39 31.37159 121.73665 1887 ft 196 kts 162°
2026-05-05 07:39 31.35853 121.74168 1889 ft 196 kts 162°
2026-05-05 07:40 31.34550 121.74661 1891 ft 193 kts 162°
2026-05-05 07:40 31.33301 121.75127 1887 ft 188 kts 162°
2026-05-05 07:40 31.32047 121.75597 1888 ft 187 kts 162°
2026-05-05 07:40 31.30816 121.76058 1888 ft 186 kts 162°
2026-05-05 07:41 31.29575 121.76525 1887 ft 186 kts 162°
2026-05-05 07:41 31.28393 121.76971 1877 ft 170 kts 162°
2026-05-05 07:41 31.27279 121.77388 1886 ft 166 kts 162°
2026-05-05 07:41 31.26172 121.77805 1883 ft 162 kts 162°
2026-05-05 07:42 31.25137 121.78196 1845 ft 157 kts 162°
2026-05-05 07:42 31.24091 121.78589 1631 ft 152 kts 162°
2026-05-05 07:42 31.23099 121.78962 1447 ft 149 kts 162°
2026-05-05 07:42 31.22104 121.79336 1248 ft 151 kts 162°
2026-05-05 07:43 31.21105 121.79713 1049 ft 150 kts 162°
2026-05-05 07:43 31.20114 121.80084 853 ft 150 kts 162°
2026-05-05 07:43 31.19115 121.80460 657 ft 150 kts 163°
2026-05-05 07:43 31.18107 121.80838 461 ft 150 kts 162°
2026-05-05 07:44 31.17111 121.81212 271 ft 150 kts 163°
2026-05-05 07:44 31.16124 121.81579 101 ft 151 kts 163°
2026-05-05 07:44 31.15142 121.81948 28 ft 134 kts 163°
2026-05-05 07:44 31.14391 121.82229 27 ft 91 kts 163°
2026-05-05 07:45 31.13963 121.82297 27 ft 41 kts 188°
2026-05-05 07:45 31.13759 121.82269 27 ft 16 kts 175°
2026-05-05 07:45 31.13678 121.82270 27 ft 7 kts 205°
2026-05-05 07:45 31.13663 121.82246 27 ft 2 kts 248°
2026-05-05 07:46 31.13655 121.82221 27 ft 10 kts 250°
2026-05-05 07:46 31.13616 121.82081 27 ft 22 kts 252°
2026-05-05 07:46 31.13570 121.81909 27 ft 21 kts 253°
2026-05-05 07:46 31.13643 121.81805 27 ft 19 kts 344°
2026-05-05 07:47 31.13747 121.81771 27 ft 11 kts 343°
2026-05-05 07:47 31.13814 121.81748 27 ft 9 kts 343°
2026-05-05 07:47 31.13874 121.81724 27 ft 8 kts 341°
2026-05-05 07:47 31.13928 121.81702 27 ft 8 kts 340°
2026-05-05 07:48 31.13998 121.81673 27 ft 16 kts 340°
2026-05-05 07:48 31.14118 121.81627 27 ft 16 kts 342°
2026-05-05 07:48 31.14224 121.81587 27 ft 15 kts 342°
2026-05-05 07:48 31.14326 121.81549 27 ft 14 kts 342°
2026-05-05 07:49 31.14424 121.81512 27 ft 16 kts 342°
2026-05-05 07:49 31.14511 121.81441 27 ft 15 kts 278°
2026-05-05 07:49 31.14486 121.81325 27 ft 14 kts 249°
2026-05-05 07:49 31.14453 121.81216 27 ft 13 kts 251°
2026-05-05 07:50 31.14422 121.81112 27 ft 13 kts 251°
2026-05-05 07:50 31.14386 121.80985 27 ft 18 kts 252°
2026-05-05 07:50 31.14345 121.80827 27 ft 21 kts 252°
2026-05-05 07:50 31.14294 121.80649 27 ft 23 kts 251°
2026-05-05 07:51 31.14250 121.80499 27 ft 14 kts 251°
2026-05-05 07:51 31.14226 121.80415 27 ft 9 kts 252°
2026-05-05 07:51 31.14205 121.80338 27 ft 12 kts 253°
2026-05-05 07:51 31.14168 121.80199 27 ft 18 kts 253°
2026-05-05 07:52 31.14131 121.80060 27 ft 17 kts 252°
2026-05-05 07:52 31.14088 121.79907 27 ft 22 kts 250°
2026-05-05 07:52 31.14045 121.79745 27 ft 12 kts 276°
2026-05-05 07:52 31.14109 121.79688 27 ft 15 kts 343°
2026-05-05 07:53 31.14254 121.79637 27 ft 23 kts 343°
2026-05-05 07:53 31.14407 121.79582 27 ft 21 kts 342°
2026-05-05 07:53 31.14549 121.79530 27 ft 20 kts 342°
2026-05-05 07:53 31.14680 121.79480 27 ft 18 kts 342°
2026-05-05 07:54 31.14800 121.79433 27 ft 17 kts 341°
2026-05-05 07:54 31.14902 121.79462 27 ft 16 kts 58°
2026-05-05 07:54 31.14956 121.79569 27 ft 14 kts 31°
2026-05-05 07:54 31.15043 121.79610 27 ft 12 kts 59°
2026-05-05 07:55 31.15064 121.79675 27 ft 0 kts 71°
2026-05-05 07:55 31.15065 121.79678 27 ft 0 kts 71°